Weather History for Sault Ste Marie, MI

Change the Weather History Date:

Saturday, February 23, 2013

  Actual Average Record
Temperature  
Mean Temperature 26 °F 19 °F  
Max Temperature 32 °F 28 °F 47 °F (1984)
Min Temperature 20 °F 11 °F -24 °F (1934)
Degree Days  
Heating Degree Days 39 46  
Month to date heating degree days 1165 1102  
Since 1 July heating degree days 5548 5902  
Moisture  
Dew Point 24 °F    
Average Humidity 85    
Maximum Humidity 92    
Minimum Humidity 78    
Precipitation  
Precipitation 0.24 in 0.05 in 0.64 in (1922)
Month to date precipitation 2.77 1.09  
Year to date precipitation 6.06 3.28  
Snow  
Snow 3.10 in 0.50 in 9.00 in (1922)
Month to date snowfall 31.2 15.8  
Since 1 July snowfall 120.6 97.4  
Snow Depth 28.00 in    
Sea Level Pressure  
Sea Level Pressure 29.77 in    
Wind  
Wind Speed 3 mph (SSE)    
Max Wind Speed 12 mph    
Max Gust Speed 16 mph    
Visibility 4 miles    
Events Snow    
T = Trace of Precipitation, MM = Missing Value Source: NWS Daily Summary

Daily Weather History Graph

Daily Weather History Graph

Search for Another Location

Airport:

Trip Planner

Search our weather history database for the weather conditions in past years. The results will help you decide how hot, cold, wet, or windy it might be!

Date:

Astronomy

Feb. 23, 2013 Rise Set
Actual Time 7:27 AM EST 6:15 PM EST
Civil Twilight 6:56 AM EST 6:45 PM EST
Nautical Twilight 6:21 AM EST 7:20 PM EST
Astronomical Twilight 5:46 AM EST 7:55 PM EST
Moon 4:21 PM EST (2/23) 5:53 AM EST (2/23)
Length of Visible Light 11h 49m
Length of Day
10h 48m
Waxing Gibbous, 95% of the Moon is Illuminated
Feb 23
Waxing Gibbous
Feb 25
Full
Mar 4
Last Quarter
Mar 11
New
Mar 19
First Quarter

Hourly Weather History & Observations

Time (EST) Temp. Windchill Dew Point Humidity Pressure Visibility Wind Dir Wind Speed Gust Speed Precip Events Conditions
12:04 AM 28.0 °F 20.0 °F 24.1 °F 85% 29.82 in 2.0 mi East 8.1 mph - 0.00 in Snow Light Snow
12:13 AM 28.0 °F 18.1 °F 24.1 °F 85% 29.81 in 1.5 mi East 11.5 mph - 0.01 in Snow Light Snow
12:23 AM 28.0 °F 20.0 °F 24.1 °F 85% 29.81 in 1.5 mi East 8.1 mph - 0.02 in Snow Light Snow
12:47 AM 28.0 °F 20.0 °F 24.1 °F 85% 29.79 in 1.5 mi East 8.1 mph - 0.03 in Snow Light Snow
12:55 AM 28.0 °F 20.8 °F 24.1 °F 85% 29.82 in 1.5 mi East 6.9 mph - 0.03 in Snow Light Snow
1:20 AM 28.0 °F 20.8 °F 24.1 °F 85% 29.79 in 2.0 mi ESE 6.9 mph - 0.01 in Snow Light Snow
1:27 AM 28.0 °F 20.0 °F 24.1 °F 85% 29.78 in 1.8 mi ESE 8.1 mph - 0.02 in Snow Light Snow
1:35 AM 27.0 °F 19.5 °F 24.1 °F 89% 29.78 in 1.8 mi East 6.9 mph - 0.02 in Snow Light Snow
1:48 AM 27.0 °F 18.7 °F 24.1 °F 89% 29.78 in 1.2 mi East 8.1 mph - 0.03 in Snow Light Snow
1:55 AM 28.0 °F 20.0 °F 24.1 °F 85% 29.80 in 1.5 mi East 8.1 mph - 0.03 in Snow Light Snow
2:39 AM 28.0 °F 20.8 °F 24.1 °F 85% 29.77 in 3.0 mi East 6.9 mph - 0.02 in Snow Light Snow
2:48 AM 27.0 °F 19.5 °F 25.0 °F 92% 29.76 in 2.5 mi ESE 6.9 mph - 0.02 in Snow Light Snow
2:55 AM 27.0 °F 21.6 °F 25.0 °F 92% 29.79 in 1.8 mi ESE 4.6 mph - 0.03 in Snow Light Snow
3:43 AM 27.0 °F 21.6 °F 25.0 °F 92% 29.74 in 0.8 mi East 4.6 mph - 0.03 in Snow Light Snow
3:51 AM 26.6 °F 21.2 °F 24.8 °F 93% 29.75 in 1.0 mi ESE 4.6 mph - 0.04 in Snow Light Snow
3:55 AM 27.0 °F 21.6 °F 25.0 °F 92% 29.77 in 1.2 mi ESE 4.6 mph - 0.04 in Snow Light Snow
4:19 AM 27.0 °F 23.0 °F 25.0 °F 92% 29.74 in 1.0 mi ESE 3.5 mph - 0.01 in Snow Light Snow
4:55 AM 28.0 °F 22.8 °F 25.0 °F 88% 29.77 in 1.5 mi ESE 4.6 mph - 0.02 in Snow Light Snow
5:12 AM 28.0 °F 22.8 °F 25.0 °F 88% 29.73 in 1.5 mi SE 4.6 mph - 0.01 in Snow Light Snow
5:25 AM 27.0 °F 21.6 °F 25.0 °F 92% 29.73 in 3.0 mi SE 4.6 mph - 0.02 in Snow Light Snow
5:31 AM 27.0 °F 20.5 °F 25.0 °F 92% 29.74 in 5.0 mi SE 5.8 mph - 0.02 in   Overcast
5:55 AM 27.0 °F 20.5 °F 25.0 °F 92% 29.76 in 6.0 mi ESE 5.8 mph - 0.02 in Snow Light Snow
6:55 AM 27.0 °F 23.0 °F 24.1 °F 89% 29.75 in 5.0 mi SSE 3.5 mph - 0.00 in Snow Light Snow
7:36 AM 26.1 °F - 24.1 °F 92% 29.74 in 3.0 mi Calm Calm - 0.00 in Snow Light Snow
7:55 AM 26.1 °F - 23.0 °F 88% 29.77 in 2.5 mi Calm Calm - 0.00 in Snow Light Snow
8:10 AM 26.1 °F - 24.1 °F 92% 29.74 in 2.0 mi Calm Calm - 0.00 in Snow Light Snow
8:38 AM 27.0 °F - 24.1 °F 89% 29.74 in 3.0 mi Calm Calm - 0.00 in Snow Light Snow
8:55 AM 27.0 °F - 24.1 °F 89% 29.77 in 4.0 mi Calm Calm - 0.00 in Snow Light Snow
9:42 AM 27.0 °F - 25.0 °F 92% 29.74 in 4.0 mi Calm Calm - 0.00 in Snow Light Snow
9:55 AM 28.0 °F - 25.0 °F 88% 29.77 in 4.0 mi Calm Calm - 0.00 in Snow Light Snow
10:09 AM 28.0 °F - 25.0 °F 88% 29.74 in 3.0 mi Calm Calm - 0.00 in Snow Light Snow
10:55 AM 28.0 °F 24.2 °F 25.0 °F 88% 29.76 in 2.0 mi SSW 3.5 mph - 0.00 in Snow Light Snow
10:59 AM 28.0 °F 22.8 °F 25.0 °F 88% 29.74 in 1.8 mi SSW 4.6 mph - 0.00 in Snow Light Snow
11:04 AM 28.0 °F 24.2 °F 24.1 °F 85% 29.74 in 2.0 mi SSW 3.5 mph - 0.00 in Snow Light Snow
11:12 AM 28.9 °F 22.8 °F 24.1 °F 82% 29.74 in 6.0 mi SSW 5.8 mph - 0.00 in Snow Light Snow
11:55 AM 28.9 °F 23.9 °F 25.0 °F 85% 29.77 in 4.0 mi SSW 4.6 mph - 0.00 in   Overcast
12:22 PM 30.9 °F 26.2 °F 24.1 °F 76% 29.74 in 10.0 mi South 4.6 mph - N/A   Mostly Cloudy
12:35 PM 30.0 °F 25.2 °F 24.1 °F 79% 29.74 in 10.0 mi South 4.6 mph - N/A   Overcast
12:55 PM 30.9 °F 27.5 °F 24.1 °F 76% 29.76 in 10.0 mi SSW 3.5 mph - N/A   Overcast
1:55 PM 30.9 °F - 25.0 °F 79% 29.76 in 2.0 mi Calm Calm - 0.00 in Snow Light Snow
2:21 PM 30.9 °F - 25.0 °F 79% 29.74 in 1.2 mi Calm Calm - 0.01 in Snow Light Snow
2:35 PM 30.9 °F - 25.0 °F 79% 29.74 in 3.0 mi Calm Calm - 0.01 in Snow Light Snow
2:55 PM 30.9 °F - 25.0 °F 79% 29.76 in 2.0 mi Calm Calm - 0.01 in Snow Light Snow
3:31 PM 30.9 °F - 26.1 °F 82% 29.74 in 3.0 mi Calm Calm - 0.00 in Snow Light Snow
3:41 PM 30.9 °F - 26.1 °F 82% 29.75 in 2.5 mi Calm Calm - 0.00 in Snow Light Snow
3:50 PM 30.2 °F - 26.6 °F 86% 29.75 in 1.0 mi Calm Calm - 0.01 in Snow Light Snow
3:55 PM 30.9 °F - 26.1 °F 82% 29.77 in 1.2 mi Calm Calm - 0.01 in Snow Light Snow
4:21 PM 30.0 °F - 26.1 °F 85% 29.76 in 1.0 mi Calm Calm - 0.01 in Snow Light Snow
4:29 PM 30.0 °F - 27.0 °F 88% 29.76 in 0.8 mi Calm Calm - 0.02 in Snow Light Snow
4:55 PM 30.0 °F - 26.1 °F 85% 29.78 in 0.8 mi Calm Calm - 0.04 in Snow Light Snow
5:13 PM 30.0 °F 25.2 °F 27.0 °F 88% 29.76 in 0.8 mi West 4.6 mph - 0.01 in Snow Light Snow
5:31 PM 30.0 °F 25.2 °F 26.1 °F 85% 29.76 in 1.2 mi West 4.6 mph - 0.01 in Snow Light Snow
5:38 PM 30.0 °F 26.5 °F 25.0 °F 82% 29.76 in 2.0 mi West 3.5 mph - 0.01 in Snow Light Snow
5:47 PM 30.0 °F 26.5 °F 25.0 °F 82% 29.77 in 5.0 mi West 3.5 mph - 0.01 in Snow Light Snow
5:55 PM 30.0 °F 25.2 °F 24.1 °F 79% 29.79 in 6.0 mi West 4.6 mph - 0.01 in   Haze
6:08 PM 28.9 °F - 24.1 °F 82% 29.77 in 8.0 mi Calm Calm - N/A   Overcast
6:17 PM 28.9 °F 25.2 °F 24.1 °F 82% 29.77 in 7.0 mi WSW 3.5 mph - N/A   Overcast
6:34 PM 28.9 °F 25.2 °F 24.1 °F 82% 29.77 in 10.0 mi WSW 3.5 mph - N/A   Overcast
6:46 PM 28.9 °F 23.9 °F 24.1 °F 82% 29.78 in 10.0 mi WSW 4.6 mph - N/A   Overcast
6:55 PM 28.9 °F 23.9 °F 24.1 °F 82% 29.81 in 10.0 mi WSW 4.6 mph - N/A   Overcast
7:55 PM 28.0 °F 22.8 °F 23.0 °F 81% 29.81 in 10.0 mi WSW 4.6 mph - N/A   Overcast
8:55 PM 27.0 °F 23.0 °F 21.9 °F 81% 29.83 in 10.0 mi WSW 3.5 mph - N/A   Overcast
9:55 PM 25.0 °F 20.7 °F 21.0 °F 85% 29.83 in 6.0 mi West 3.5 mph - N/A   Scattered Clouds
10:55 PM 23.0 °F 18.4 °F 19.9 °F 88% 29.83 in 9.0 mi WNW 3.5 mph - N/A   Overcast
11:22 PM 19.9 °F 13.4 °F 17.1 °F 89% 29.80 in 1.5 mi WSW 4.6 mph - N/A   Mostly Cloudy
11:32 PM 21.0 °F - 17.1 °F 85% 29.80 in 3.0 mi Calm Calm - N/A   Scattered Clouds
11:55 PM 21.0 °F - 17.1 °F 85% 29.83 in 6.0 mi Calm Calm - N/A   Scattered Clouds